Yakima, WA
on Friday, February 1, 2013

Friday
Previous Day Next Day
Daily Summary
 ActualAverageRecord
Temperature
Mean Temperature °F 34°F  
Max Temperature 56°F 43°F 59°F (1971)
Min Temperature 29°F 25°F -25°F (1950)
Degree Days
Heating Degree Days 22 31  
Month to date heating degree days 22 31  
Since 1 July heating degree days 3291 3749  
Cooling Degree Days 0 0  
Month to date cooling degree days 0 0  
Year to date cooling degree days 0 0  
Moisture
Dew Point 30°F   
Average Humidity 67    
Maximum Humidity 92    
Minimum Humidity 41    
Precipitation
Precipitation 0.00 in 0.03 in 0.87 in (1961)
Month to date precipitation 0.00 0.03  
Year to date precipitation 0.10 1.17  
Snow
Snow 0.00 in 0.10 in 2.50 in (1989)
Month to date snowfall 0.0 0.1  
Year to date snowfall 1.1 5.4  
Since 1 July snowfall 15.3 18.4  
Snow Depth 0.00 in   
Wind
Wind Speed 3 mph   
Max Wind Speed 10 mph   
Max Gust Speed 14 mph   
Visibility 10 miles   
Events     

Key: T is trace of precipitation, MM is missing value
Source: NWS Daily Summary
Time(PST)TemperatureDew PointHumidity Pressure Visibility Wind DirectionWind SpeedGust SpeedPrecipitationEvents Conditions
12:53 AM 33.1°F 28.9°F 85% 30.28 in 10.0 miles WSW 6.9 mph - N/A   Clear
1:53 AM 34.0°F 28.9°F 82% 30.29 in 10.0 miles ESE 3.5 mph - N/A   Clear
2:53 AM 30.9°F 28.0°F 89% 30.30 in 10.0 miles Calm Calm - N/A   Clear
3:53 AM 30.9°F 27.0°F 85% 30.30 in 10.0 miles Calm Calm - N/A   Clear
4:53 AM 33.1°F 28.0°F 82% 30.32 in 10.0 miles West 8.1 mph - N/A   Clear
5:53 AM 34.0°F 28.9°F 82% 30.34 in 10.0 miles West 5.8 mph - N/A   Clear
6:53 AM 32.0°F 28.0°F 85% 30.34 in 10.0 miles WNW 6.9 mph - N/A   Clear
7:53 AM 32.0°F 26.1°F 79% 30.36 in 10.0 miles WNW 8.1 mph - N/A   Clear
8:53 AM 36.0°F 30.0°F 79% 30.38 in 10.0 miles Calm Calm - N/A   Clear
9:53 AM 42.1°F 32.0°F 67% 30.38 in 10.0 miles Calm Calm - N/A   Clear
10:53 AM 50.0°F 33.1°F 52% 30.39 in 10.0 miles Calm Calm - N/A   Clear
11:53 AM 53.1°F 33.1°F 47% 30.38 in 10.0 miles Calm Calm - N/A   Clear
12:53 PM 55.0°F 33.1°F 43% 30.38 in 10.0 miles Calm Calm - N/A   Clear
1:53 PM 55.9°F 33.1°F 42% 30.36 in 10.0 miles Calm Calm - N/A   Clear
2:53 PM 55.9°F 32.0°F 40% 30.36 in 10.0 miles Variable 3.5 mph - N/A   Clear
3:53 PM 54.0°F 33.1°F 45% 30.38 in 10.0 miles Calm Calm - N/A   Clear
4:53 PM 45.0°F 30.9°F 58% 30.38 in 10.0 miles Calm Calm - N/A   Clear
5:53 PM 37.9°F 28.9°F 70% 30.40 in 10.0 miles West 3.5 mph - N/A   Clear
6:53 PM 36.0°F 28.9°F 76% 30.43 in 10.0 miles West 8.1 mph - N/A   Clear
7:53 PM 34.0°F 28.0°F 79% 30.45 in 10.0 miles West 5.8 mph - N/A   Clear
8:53 PM 32.0°F 27.0°F 82% 30.47 in 10.0 miles West 6.9 mph - N/A   Clear
9:53 PM 32.0°F 28.0°F 85% 30.48 in 10.0 miles West 6.9 mph - N/A   Clear
10:53 PM 32.0°F 27.0°F 82% 30.47 in 10.0 miles West 4.6 mph - N/A   Clear
11:53 PM 32.0°F 27.0°F 82% 30.48 in 10.0 miles NW 3.5 mph - N/A   Clear
Moon Phase
Feb. 01 Feb. 03 Feb. 10 Feb. 17 Feb. 25
Sunrise:07:25 AM (PST) Moon Rise:11:46 PM (PST)2/1
Sunset:05:06 PM (PST) Moon Set:09:37 AM (PST)2/1

Copyright © 2014 The Weather Underground, Inc.